Probability
0 0 0 0 0 0 0 0 0 0 0 0 0 0 0 0 0 3 3 0 3 3 3 3 0 0 0 0 0 0 0 0 0 0 0 3 0 3 3 0 0 0 0 0
0 0 0 0 0 0 0 0 0 0 0 0 0 0 0 0 0 0 3 3 3 3 3 3 0 0 0 0 0 0 0 0 0 0 0 3 3 3 3 3 0 0 0 0
0 0 0 0 0 0 0 0 0 0 0 0 0 0 0 0 0 3 0 10 3 3 3 3 3 0 0 0 0 0 0 0 0 0 0 3 3 3 3 3 0 0 0 0
0 0 0 0 0 0 0 0 0 0 0 0 0 0 0 0 0 0 3 3 6 3 3 3 3 0 0 0 0 0 0 0 0 0 0 3 3 3 3 3 3 3 3 0
0 0 0 0 0 0 0 0 0 0 0 0 0 0 0 0 0 0 3 3 3 3 3 3 3 0 0 0 0 0 0 0 0 0 0 0 0 0 3 0 0 0 3 0
0 0 0 0 0 0 0 0 0 0 0 0 0 0 0 0 0 0 3 3 3 3 3 3 3 3 0 0 0 0 0 0 0 0 0 0 0 0 0 0 0 0 0 0
0 0 0 0 0 0 0 0 0 0 0 0 0 0 0 0 0 0 0 0 0 0 0 0 0 0 0 0 0 0 0 0 0 0 0 0 0 0 0 0 0 0 0 0
0 0 0 0 0 0 0 0 0 0 0 0 0 0 0 0 0 0 0 0 0 0 0 0 0 0 0 0 0 0 3 0 0 0 0 0 3 3 0 0 0 0 0 0
0 0 0 0 0 0 0 0 0 0 0 0 0 0 0 0 0 0 0 0 0 0 0 0 0 0 0 0 0 3 3 3 3 0 0 0 0 3 3 0 0 0 0 0
0 0 0 0 0 0 0 0 0 0 0 0 0 0 0 0 0 0 0 0 0 0 0 0 0 0 0 0 0 3 3 3 3 3 6 0 0 0 0 0 0 0 0 0
0 0 0 0 0 0 0 0 0 0 0 0 0 0 0 0 0 0 0 0 0 0 0 0 0 0 0 0 0 3 3 3 3 3 0 0 0 0 0 0 0 0 0 0
0 0 0 0 0 0 0 0 0 0 0 0 0 0 0 0 0 0 0 0 0 0 0 0 0 0 0 0 0 0 3 3 0 0 0 0 0 0 0 0 0 0 0 0
0 0 0 0 0 0 0 0 0 0 0 0 0 0 0 0 0 0 0 0 0 0 0 0 0 0 0 0 0 0 0 0 0 0 0 0 0 0 0 0 0 0 0 0
0 0 0 0 0 0 0 0 0 0 0 0 0 0 0 0 0 0 3 3 3 0 0 0 0 0 0 0 0 0 0 0 0 0 0 0 0 0 0 0 0 3 0 0
0 0 0 0 0 0 0 0 0 0 0 0 0 0 0 0 0 3 3 3 0 0 0 0 0 0 0 0 0 0 0 0 0 0 0 0 0 0 0 0 0 0 3 0
0 0 0 0 0 0 0 0 0 0 0 0 0 0 0 0 6 6 3 3 3 0 0 0 0 0 0 0 0 0 0 0 0 0 0 0 0 0 0 0 0 0 0 0
0 0 0 0 0 0 0 0 0 0 0 0 0 0 0 0 3 3 3 3 3 0 0 0 0 0 0 0 0 0 0 0 0 0 0 0 0 0 0 0 0 0 0 0
0 0 0 0 0 0 0 0 0 0 0 0 0 0 0 3 3 3 3 3 3 3 0 0 0 0 0 0 0 0 0 0 0 0 0 0 0 0 0 0 0 0 0 0
0 0 0 0 0 0 0 0 0 0 0 0 0 0 0 0 0 3 3 3 3 3 0 0 0 0 0 0 0 0 0 0 0 0 0 0 0 0 0 0 0 0 0 0
0 0 0 0 0 0 0 0 0 0 0 0 0 0 0 0 0 0 3 3 3 3 0 0 0 0 0 0 0 0 0 0 0 0 0 0 0 0 0 0 0 0 0 0
0 0 0 0 0 0 0 0 0 0 0 0 0 0 0 0 0 0 6 6 3 0 0 0 0 0 0 0 0 0 0 0 0 0 0 0 0 0 0 0 0 0 0 0
0 0 0 0 0 0 0 0 0 0 0 0 0 0 0 0 0 3 0 3 0 0 0 0 0 0 0 0 0 0 0 0 0 0 0 0 0 0 0 0 0 0 0 0
0 0 0 0 0 0 0 0 0 0 0 0 0 0 0 0 0 0 0 0 0 0 0 0 0 0 0 0 0 0 0 0 0 0 0 0 0 0 0 0 0 0 0 0
0 0 0 0 0 0 0 0 0 0 0 0 0 0 0 0 0 0 0 0 0 0 0 0 0 0 0 0 0 0 0 0 0 0 0 0 0 0 0 0 0 0 0 0
0 0 0 0 0 0 0 0 0 0 0 0 0 0 0 0 0 0 0 0 0 0 0 0 0 0 0 0 0 0 0 0 0 0 0 0 0 0 0 0 0 0 0 0
0 0 0 0 0 0 0 0 0 0 0 0 0 0 0 0 0 0 0 0 0 0 0 0 0 0 0 0 0 0 0 0 0 0 0 0 0 0 0 0 0 0 0 0
0 0 0 0 0 0 0 0 0 0 0 0 0 0 0 0 0 0 0 0 0 0 0 0 0 0 0 0 0 0 0 0 0 0 0 0 0 0 0 0 0 0 0 0
Height
5810 5813 5815 5817 5819 5820 5821 5823 5825 5827 5827 5828 5829 5830 5831 5832 5832 5833 5834 5836 5837 5838 5839 5841 5842 5844 5845 5847 5848 5850 5851 5853 5855 5857 5858 5860 5861 5863 5864 5865 5866 5866 5867 5867
5804 5806 5808 5810 5813 5814 5816 5818 5819 5821 5823 5823 5824 5825 5827 5828 5828 5829 5831 5832 5833 5835 5836 5838 5840 5841 5842 5844 5845 5847 5849 5850 5852 5854 5855 5857 5858 5860 5861 5862 5863 5864 5865 5865
5797 5799 5801 5804 5808 5809 5810 5812 5814 5815 5818 5818 5819 5821 5822 5823 5824 5826 5827 5828 5830 5831 5833 5835 5837 5838 5840 5841 5842 5844 5846 5847 5849 5850 5852 5854 5855 5857 5858 5859 5861 5861 5862 5862
5790 5793 5794 5801 5801 5803 5805 5806 5808 5810 5811 5813 5814 5816 5817 5819 5820 5822 5823 5825 5826 5828 5830 5832 5833 5835 5837 5838 5839 5841 5842 5844 5845 5847 5848 5850 5852 5853 5855 5856 5857 5858 5859 5859
5782 5785 5788 5793 5795 5797 5799 5801 5803 5804 5806 5807 5809 5811 5812 5814 5816 5817 5819 5820 5822 5824 5826 5828 5830 5832 5834 5835 5836 5838 5839 5840 5842 5843 5845 5847 5848 5849 5851 5852 5853 5854 5855 5855
5775 5778 5782 5787 5789 5790 5793 5796 5798 5799 5801 5802 5804 5806 5809 5810 5811 5813 5814 5816 5818 5820 5822 5824 5826 5828 5830 5831 5833 5834 5835 5837 5838 5840 5841 5843 5844 5845 5847 5848 5849 5850 5851 5852
5767 5770 5775 5780 5782 5784 5788 5792 5792 5793 5795 5797 5799 5802 5804 5805 5806 5808 5810 5812 5814 5816 5819 5821 5823 5825 5826 5828 5829 5830 5832 5833 5834 5836 5837 5839 5840 5841 5843 5844 5845 5846 5847 5847
5760 5763 5770 5772 5775 5778 5781 5783 5785 5787 5790 5792 5794 5796 5798 5800 5802 5804 5806 5808 5810 5812 5815 5817 5819 5821 5822 5824 5825 5826 5828 5829 5830 5831 5833 5834 5836 5837 5838 5839 5840 5842 5842 5843
5755 5760 5762 5765 5768 5771 5774 5776 5779 5782 5784 5786 5788 5791 5793 5795 5797 5799 5801 5804 5806 5808 5810 5812 5814 5816 5818 5819 5821 5822 5823 5825 5826 5827 5829 5830 5831 5832 5834 5835 5836 5837 5838 5838
5746 5750 5753 5757 5760 5764 5767 5770 5773 5776 5778 5781 5783 5785 5788 5790 5792 5794 5797 5799 5801 5803 5806 5808 5810 5812 5813 5815 5817 5818 5819 5820 5822 5823 5824 5825 5827 5828 5829 5830 5831 5832 5833 5833
5738 5742 5745 5749 5753 5757 5760 5763 5766 5770 5772 5775 5777 5780 5782 5784 5787 5789 5791 5794 5796 5799 5801 5803 5805 5807 5809 5810 5812 5814 5815 5816 5817 5819 5820 5821 5822 5823 5824 5825 5826 5827 5828 5828
5732 5735 5739 5743 5746 5750 5753 5756 5759 5763 5766 5768 5771 5774 5776 5779 5781 5784 5786 5788 5791 5793 5795 5797 5800 5802 5804 5806 5807 5809 5810 5811 5813 5814 5815 5816 5817 5818 5819 5820 5821 5821 5822 5822
5724 5727 5731 5735 5739 5742 5746 5749 5753 5756 5759 5762 5765 5768 5771 5773 5776 5778 5780 5783 5785 5788 5790 5792 5794 5796 5798 5800 5802 5803 5805 5806 5808 5809 5810 5811 5812 5812 5813 5814 5815 5815 5816 5816
5716 5720 5724 5728 5732 5735 5739 5743 5746 5750 5753 5756 5759 5762 5765 5767 5770 5772 5775 5777 5779 5781 5784 5786 5788 5790 5792 5794 5796 5798 5799 5800 5802 5803 5804 5805 5806 5807 5807 5808 5809 5809 5809 5809
5709 5713 5717 5721 5725 5728 5732 5736 5740 5743 5746 5750 5753 5756 5759 5762 5764 5767 5769 5771 5773 5776 5778 5780 5782 5784 5786 5788 5790 5792 5793 5794 5795 5796 5798 5799 5799 5800 5801 5802 5802 5802 5802 5802
5701 5705 5710 5713 5717 5721 5725 5729 5733 5736 5740 5743 5746 5749 5752 5755 5758 5761 5763 5765 5768 5770 5772 5774 5776 5778 5780 5782 5784 5785 5787 5788 5789 5790 5791 5792 5793 5793 5794 5795 5795 5795 5795 5795
5694 5699 5703 5706 5710 5714 5718 5722 5726 5729 5733 5737 5740 5743 5746 5749 5752 5754 5757 5759 5762 5764 5766 5768 5770 5772 5774 5776 5777 5779 5780 5781 5783 5783 5784 5785 5786 5787 5787 5788 5788 5788 5788 5788
5687 5691 5695 5699 5703 5707 5711 5715 5718 5722 5726 5730 5733 5736 5740 5742 5745 5748 5750 5753 5755 5758 5760 5762 5764 5766 5767 5769 5771 5772 5773 5775 5776 5777 5777 5778 5779 5780 5780 5780 5781 5781 5781 5780
5680 5684 5688 5692 5696 5700 5704 5708 5711 5715 5719 5723 5727 5730 5733 5736 5739 5741 5744 5746 5749 5752 5754 5755 5757 5759 5761 5762 5764 5765 5766 5767 5768 5769 5770 5771 5772 5772 5773 5773 5773 5773 5773 5772
5672 5676 5681 5685 5688 5693 5697 5701 5705 5708 5712 5716 5720 5723 5726 5729 5732 5735 5737 5740 5743 5745 5747 5749 5751 5752 5754 5755 5757 5758 5759 5760 5761 5762 5763 5764 5764 5765 5765 5765 5765 5765 5765 5764
5665 5669 5673 5677 5681 5686 5690 5694 5698 5702 5706 5709 5713 5716 5719 5722 5725 5728 5731 5734 5736 5738 5740 5742 5744 5745 5747 5748 5749 5751 5752 5753 5754 5755 5755 5756 5757 5757 5757 5757 5757 5757 5756 5756
5658 5662 5666 5670 5674 5679 5683 5687 5691 5695 5698 5702 5705 5709 5712 5715 5718 5721 5724 5727 5729 5731 5733 5735 5737 5739 5740 5741 5742 5744 5745 5746 5747 5747 5748 5748 5749 5749 5749 5749 5749 5748 5748 5747
5652 5656 5659 5663 5668 5672 5676 5680 5683 5687 5691 5695 5698 5702 5705 5708 5711 5714 5717 5720 5722 5724 5726 5729 5730 5732 5733 5734 5736 5737 5738 5738 5739 5740 5740 5740 5741 5741 5741 5741 5740 5739 5739 5738
5645 5649 5653 5657 5661 5664 5668 5672 5676 5680 5684 5687 5691 5695 5698 5701 5705 5707 5710 5713 5715 5717 5719 5721 5723 5725 5726 5728 5729 5730 5730 5731 5731 5732 5732 5732 5732 5732 5732 5732 5731 5730 5730 5729
5639 5643 5646 5650 5654 5657 5661 5665 5668 5673 5676 5680 5684 5688 5691 5694 5698 5701 5703 5706 5708 5710 5712 5714 5716 5718 5719 5721 5721 5722 5723 5723 5724 5724 5724 5724 5724 5724 5724 5723 5722 5721 5720 5719
5632 5636 5640 5643 5647 5650 5653 5657 5661 5665 5669 5673 5677 5681 5684 5688 5691 5693 5696 5699 5701 5703 5705 5707 5709 5710 5712 5713 5714 5715 5716 5716 5716 5716 5716 5716 5716 5715 5715 5714 5713 5712 5711 5709
5626 5629 5633 5637 5640 5644 5647 5651 5655 5658 5662 5666 5670 5674 5677 5681 5684 5686 5689 5692 5694 5696 5698 5700 5702 5703 5705 5706 5707 5707 5708 5708 5708 5708 5708 5708 5707 5707 5706 5705 5704 5703 5701 5699
Wind_Speed
26 24 23 23 22 22 22 21 20 20 19 17 17 16 15 15 15 15 14 14 14 14 14 15 15 15 15 15 15 15 15 15 15 15 14 14 13 13 12 11 10 10 10 9
26 25 24 24 23 23 22 21 21 21 19 18 18 17 17 16 16 16 15 15 15 14 14 14 14 14 14 14 15 15 15 15 15 16 15 15 15 14 13 12 12 11 11 11
27 27 26 25 23 23 22 21 21 21 19 19 19 19 18 17 17 16 16 16 15 15 15 15 15 15 14 14 14 14 15 15 15 16 16 16 16 15 14 13 13 13 12 12
29 29 29 25 23 23 23 21 21 21 20 20 20 20 19 18 17 17 16 16 16 17 16 16 16 15 15 14 14 14 14 15 15 16 16 17 17 16 15 14 14 14 14 14
30 30 29 26 24 23 23 22 21 20 20 20 20 20 19 19 18 17 17 18 17 17 17 17 16 16 15 14 14 15 15 15 15 16 16 16 16 17 16 15 15 15 15 15
32 31 30 26 25 24 23 22 21 20 20 19 19 19 18 19 19 18 17 18 18 17 17 17 16 16 16 15 15 15 15 16 16 16 17 17 17 17 17 17 16 16 16 16
32 31 29 27 25 25 24 21 21 20 20 19 19 18 18 19 19 18 18 18 17 17 17 16 16 16 16 16 16 16 16 16 17 17 18 19 18 17 18 18 17 17 17 17
32 31 29 26 25 24 24 23 22 21 20 20 20 19 19 19 19 19 19 18 18 17 17 17 17 17 16 16 16 16 16 16 16 16 17 18 18 18 17 17 17 17 17 17
30 30 28 27 25 25 24 24 23 22 21 21 20 19 19 19 19 19 19 19 18 18 18 18 18 17 17 16 16 16 16 16 16 16 18 18 18 19 18 18 18 18 18 17
30 30 29 28 27 25 24 24 23 22 21 21 20 20 20 20 20 20 20 20 19 19 19 19 19 18 17 16 16 16 16 16 15 16 16 17 19 19 19 20 19 19 18 19
30 29 29 28 27 25 24 24 24 23 22 22 21 21 21 21 20 20 21 20 20 20 20 20 20 19 18 18 17 17 16 16 16 16 16 17 18 18 18 19 19 20 20 20
30 28 29 28 27 26 25 25 24 25 24 23 23 22 22 21 21 21 21 21 21 20 20 20 20 20 19 19 19 18 17 17 17 17 17 18 18 18 19 19 20 20 20 20
30 29 29 28 28 28 27 26 25 24 24 24 23 22 22 21 21 22 21 21 21 21 21 21 21 21 21 20 20 20 19 19 19 19 19 19 19 19 20 20 20 21 21 21
30 29 28 28 29 28 27 27 27 25 24 23 23 22 22 21 21 21 21 21 21 22 22 22 21 21 21 20 20 20 20 20 20 20 20 20 20 20 20 20 21 21 21 22
30 29 28 28 29 28 28 27 27 26 25 24 24 23 22 22 21 21 21 21 21 22 22 22 21 21 21 21 21 20 20 20 20 20 21 21 21 21 21 21 21 22 22 23
30 30 28 28 29 28 27 27 27 26 25 25 25 24 23 23 22 22 22 21 21 20 20 21 21 21 20 21 21 21 21 21 21 21 21 21 21 21 21 21 21 22 22 23
30 30 29 28 28 29 28 27 27 27 27 26 25 25 24 23 23 23 23 23 22 21 20 21 21 22 21 21 22 22 22 22 21 21 21 21 21 21 21 21 22 22 22 23
29 29 28 28 28 28 27 27 28 28 27 26 26 25 25 24 24 24 23 23 22 22 21 21 21 22 22 23 23 23 23 23 23 22 22 22 22 22 22 22 22 23 23 23
28 28 29 28 28 28 28 28 27 28 28 27 26 25 25 25 25 25 24 23 22 22 22 21 21 22 22 22 22 22 22 22 22 22 22 23 23 23 23 23 23 23 24 24
28 28 29 29 28 28 28 28 28 27 27 27 27 26 26 26 26 25 24 23 23 22 22 22 22 21 21 22 21 21 21 22 22 22 22 22 22 22 23 23 24 24 24 24
28 28 28 28 28 27 28 28 28 29 28 28 27 26 26 26 26 25 24 24 23 23 23 22 21 20 20 21 21 21 21 21 22 22 22 23 23 23 23 24 24 25 25 25
27 27 27 28 27 27 27 28 28 29 29 29 28 27 26 26 25 25 24 24 23 23 22 22 22 21 20 21 21 20 21 21 22 23 23 24 24 24 25 25 25 26 27 27
26 27 27 28 27 27 27 28 29 29 29 29 27 27 26 25 25 24 24 23 23 23 23 22 22 22 21 21 20 21 21 22 22 23 23 24 24 24 25 26 27 28 28 29
26 26 27 28 28 28 27 27 28 29 29 29 28 27 26 25 25 24 24 23 23 23 23 22 22 22 22 22 21 22 22 23 23 23 23 24 24 25 25 26 27 28 29 29
26 26 26 27 27 28 28 28 28 28 29 29 29 28 27 26 25 25 25 25 24 23 23 23 22 22 22 22 21 21 22 22 22 22 23 23 24 25 25 26 27 28 29 29
26 26 25 25 25 27 28 28 28 28 28 28 28 28 27 26 25 25 25 25 25 24 23 23 22 22 22 22 22 21 22 22 22 22 23 24 25 26 27 27 27 28 29 30
25 25 25 25 25 26 27 28 28 28 29 28 28 28 27 26 25 25 26 25 25 24 24 23 23 23 23 23 23 23 23 23 22 23 24 24 25 25 26 27 28 29 30 31
Wind_Direction
243 245 246 246 247 247 248 249 250 250 251 252 251 249 248 248 246 245 244 241 238 236 235 231 231 231 234 231 227 228 230 229 229 228 227 225 228 230 233 234 235 237 239 242
243 244 244 245 246 248 249 248 250 250 250 250 248 246 246 246 245 243 244 242 236 235 232 227 228 232 234 231 229 230 230 230 231 231 229 229 231 233 235 236 239 243 244 245
242 243 244 244 245 247 249 248 248 249 248 247 246 245 245 246 244 242 241 238 233 232 230 227 229 232 233 233 232 233 232 232 233 233 232 231 232 236 236 239 244 247 248 251
241 243 245 244 244 245 246 247 247 247 247 245 245 245 245 244 242 240 239 236 231 231 231 230 231 232 234 237 237 236 235 233 234 233 234 236 237 237 239 242 246 249 251 254
240 243 246 244 243 244 245 245 245 246 246 246 244 243 243 242 240 240 240 236 233 231 230 232 233 232 235 239 238 235 236 235 235 232 232 235 237 240 242 245 248 249 252 254
239 242 244 243 241 243 245 243 243 243 244 244 243 240 240 240 240 239 238 235 232 230 229 231 233 233 236 238 237 237 239 238 238 237 236 237 239 242 244 245 247 250 252 254
237 241 243 242 241 242 242 241 240 241 242 242 241 238 238 239 238 237 236 233 231 229 228 230 232 235 238 238 238 240 244 243 242 244 242 241 242 243 244 246 248 248 251 253
238 240 241 240 239 241 241 240 239 240 240 240 239 237 238 238 239 238 235 233 232 231 232 233 234 235 238 241 242 244 245 244 246 247 244 242 242 242 244 247 250 251 253 254
239 240 240 238 237 240 240 239 239 239 238 239 238 236 238 239 239 238 235 232 232 234 236 234 233 236 239 241 243 244 244 245 246 248 247 246 246 246 248 251 253 255 257 258
236 237 237 235 235 237 237 237 237 237 236 234 235 236 238 238 238 238 236 234 234 236 236 235 236 237 238 240 242 245 246 247 248 249 250 249 248 248 250 252 253 254 258 261
233 233 233 231 232 233 234 234 234 234 234 233 234 235 236 237 238 239 237 233 233 236 237 237 236 237 240 240 243 245 245 247 250 251 251 251 251 253 255 253 252 254 259 262
231 230 231 231 232 232 233 232 233 232 232 233 234 235 234 235 238 238 238 234 233 235 237 236 235 236 238 241 243 244 244 247 250 252 253 253 254 255 256 257 256 258 261 263
229 228 229 230 231 232 232 230 231 231 232 232 232 233 233 235 237 237 236 236 234 234 236 237 237 238 240 243 243 244 246 249 251 253 254 255 256 256 257 259 259 261 263 264
226 228 230 229 229 231 231 230 231 231 232 232 231 232 233 234 235 236 236 237 236 236 236 237 240 240 241 243 245 246 248 250 252 254 254 255 257 258 258 261 261 263 264 265
227 229 230 229 229 229 229 230 230 231 232 230 230 232 234 234 235 236 236 236 237 238 238 239 242 243 243 243 244 247 250 252 253 254 255 256 257 259 260 261 264 266 266 268
230 230 230 230 229 228 229 228 228 229 229 230 232 232 234 236 237 237 236 235 237 238 239 240 242 243 243 243 246 248 250 253 255 254 255 257 258 259 260 262 264 269 270 270
231 231 231 231 230 229 228 228 228 229 229 231 232 233 234 234 236 237 236 236 238 239 241 242 243 243 245 247 248 249 251 253 255 256 258 259 259 259 260 262 266 271 273 274
231 231 231 231 229 229 229 229 229 229 230 230 231 233 234 233 233 234 235 237 237 238 242 245 244 243 246 249 249 250 252 252 254 258 258 258 260 260 261 264 267 270 272 274
232 232 231 231 228 228 229 228 228 228 229 230 230 232 232 233 232 233 236 236 237 238 241 243 245 247 247 249 250 250 251 252 254 256 257 259 260 262 263 265 268 271 274 275
230 230 229 229 228 228 227 225 226 227 229 229 231 233 234 234 233 233 235 237 237 239 241 244 247 249 250 249 249 250 251 253 254 255 257 260 261 263 266 268 270 273 274 276
228 227 227 228 226 227 226 226 225 224 226 229 231 232 232 232 233 234 235 237 237 238 242 245 247 248 249 249 250 250 252 254 255 257 260 262 263 265 267 269 272 273 274 275
227 225 225 225 225 225 226 227 225 225 227 229 231 232 232 232 233 234 236 238 238 238 240 243 246 247 249 252 252 254 257 258 259 261 263 264 266 267 269 271 272 273 273 275
226 224 225 225 224 225 227 228 227 227 228 229 231 232 232 232 233 233 235 237 238 239 240 242 244 248 251 252 253 257 261 263 264 265 266 266 267 269 271 273 273 274 276 278
225 225 225 225 226 227 227 228 228 228 228 230 231 231 232 232 233 234 235 237 238 240 241 242 244 247 251 255 257 259 260 263 265 266 267 267 269 272 274 276 277 278 278 280
225 225 224 224 225 226 225 225 226 228 230 230 228 228 229 230 231 232 235 237 239 240 242 243 244 247 251 254 258 262 263 264 265 267 268 270 272 274 277 279 280 281 280 281
225 224 222 223 224 224 223 223 224 226 227 227 228 229 230 230 231 232 235 238 240 242 243 244 246 248 250 254 257 260 263 265 268 269 271 274 275 277 279 280 281 283 283 285
224 224 223 223 223 223 223 223 225 226 226 227 228 230 230 230 232 234 236 238 241 244 246 248 249 249 251 254 257 260 264 265 267 270 273 276 277 278 279 282 284 285 286 287